Location: Katowice
(50.2611°N, 19.0242°E)
Time: 06:27:41
(UTC+02:00)

A-11 Canister half - Pass Details

Date: 23 July 2019
Orbit: 1526 x 1683 km, 47.3° (Epoch: 19 August)

Event Time Altitude Azimuth Distance (km) Brightness Sun altitude
Rises 23:28:38 0° 264° (W) 4,901 11.8 -17.5°
Reaches altitude 10° 23:31:49 10° 263° (W) 3,898 11.3 -17.6°
Maximum altitude 23:41:45 76° 181° (S) 1,658 9.0 -18.1°
Drops below altitude 10° 23:51:20 10° 98° (E) 3,774 10.8 -18.5°
Sets 23:54:22 0° 97° (E) 4,739 11.4 -18.7°
